Dewpoint
40 36 35 35 34 34 35 36 38 38 37 36 36 35 33 32 32 34 34 33 33 31
37 35 35 36 35 35 35 36 36 36 35 33 33 32 29 29 29 29 30 30 30 28
36 36 36 37 33 34 33 33 35 33 32 30 29 28 26 24 25 25 25 26 27 26
36 36 37 35 33 32 32 33 32 29 27 27 26 25 24 23 22 23 24 24 24 24
37 36 34 32 31 31 30 30 29 26 23 22 22 22 20 18 20 21 21 21 21 21
36 34 31 30 29 29 29 29 26 23 21 19 19 20 20 21 19 19 20 20 20 19
34 32 31 28 28 27 27 27 25 22 20 20 18 17 17 19 18 18 19 20 18 17
33 31 29 27 26 27 27 26 23 22 20 18 17 16 17 19 17 15 16 16 13 15
31 29 28 27 27 29 27 26 24 21 20 16 13 19 19 17 13 12 12 12 11 13
29 29 28 29 29 28 27 25 21 19 19 17 17 18 20 18 15 15 15 12 7 3
31 30 30 30 29 29 29 28 26 23 21 18 18 20 20 20 20 19 18 18 17 15
30 29 28 28 28 30 28 27 26 27 23 20 20 19 19 20 20 20 19 18 17 14
30 28 27 27 28 29 28 26 25 24 25 21 20 19 20 22 20 19 18 17 14 13
29 27 27 27 27 27 26 25 24 23 22 21 19 19 18 21 22 20 19 18 16 13
Wind_Speed
18 16 15 15 12 11 11 10 9 8 8 6 6 5 5 6 6 6 7 7 4 4
17 17 15 14 13 10 11 11 11 10 8 7 4 5 4 6 6 6 5 5 4 5
17 15 14 14 13 12 12 12 12 10 10 7 5 4 4 5 5 6 5 6 6 6
16 16 16 14 13 12 12 12 12 10 9 7 6 5 5 6 6 8 8 8 7 5
18 16 15 15 14 13 12 11 12 11 9 7 6 6 6 5 7 9 9 7 7 7
19 19 15 15 14 13 12 12 12 12 10 8 7 6 6 6 9 10 8 8 10 10
22 19 18 16 15 14 13 12 13 11 10 8 7 6 5 7 9 10 9 12 13 12
20 20 19 17 15 13 12 11 13 12 9 8 9 5 6 7 9 10 11 12 13 13
20 21 18 17 16 13 12 12 11 12 10 8 6 6 11 5 9 9 10 11 12 12
20 22 19 16 16 15 13 12 13 12 11 11 9 7 11 9 11 11 10 10 10 10
19 21 19 17 15 13 11 11 12 9 13 12 11 11 11 12 14 13 13 13 11 13
22 23 21 20 18 15 16 15 10 7 15 15 12 11 8 13 14 13 14 14 13 12
21 22 21 20 18 15 14 15 14 12 12 15 13 9 6 11 13 13 14 15 15 15
19 20 20 19 17 17 16 15 14 14 14 14 12 8 4 2 11 11 12 12 11 11
Wind_Direction
177 182 178 178 166 171 154 138 137 125 112 102 98 92 94 94 85 79 73 64 49 89
177 176 173 162 159 156 141 138 134 128 118 102 96 99 95 86 90 90 86 85 73 71
177 168 161 158 156 157 143 139 138 135 121 117 109 105 113 107 88 99 85 74 57 56
171 163 159 157 149 147 147 146 136 130 118 122 120 118 104 108 106 92 86 75 64 62
163 158 155 151 145 146 150 141 128 128 121 130 129 134 138 125 106 99 88 84 80 54
160 153 149 140 150 143 150 138 137 125 132 141 133 141 130 129 102 93 88 83 73 56
160 150 149 149 152 150 149 145 136 130 129 136 142 131 136 119 104 100 94 80 67 58
148 148 142 147 150 146 143 134 132 128 134 144 138 99 133 122 119 118 105 92 87 72
153 137 146 146 137 142 141 140 135 126 136 139 113 39 23 121 123 115 108 110 106 108
150 137 140 135 140 145 153 146 126 138 135 120 119 75 56 70 102 95 87 85 97 95
141 134 136 140 139 140 136 116 111 135 133 127 120 113 97 101 101 101 96 92 84 78
146 140 144 146 146 137 125 119 134 137 135 132 130 130 137 116 110 105 93 81 73 82
149 144 139 141 138 131 136 144 150 127 124 133 136 146 126 125 128 121 111 102 87 72
133 131 133 135 138 140 144 141 141 143 139 140 142 142 112 96 132 135 121 112 97 79